AAL231 KDCA-KJFK

Flight info

Callsign AAL231
Flight time N/A
Altitude 9000
Route DOCTR5 AGARD T287 SPEAK/N0362F170 T287 DONIL T315 PANZE V44 CAMRN
Aircraft A321/M-SDE3FGHIRWY/LB1

Departure

Time 2026-04-30 21:19
Airport Ronald Reagan Washington National Airport (KDCA)

Arrival

Time N/A
Airport John F. Kennedy International Airport (KJFK)
Time Latitude Longitude Altitude Speed Heading
2026-04-30 21:02 38.84995 -77.04045 3 ft 0 kts 298°
2026-04-30 21:11 38.84994 -77.04041 21 ft 3 kts 298°
2026-04-30 21:12 38.84985 -77.04020 22 ft 3 kts 298°
2026-04-30 21:12 38.84976 -77.03999 23 ft 3 kts 292°
2026-04-30 21:12 38.84972 -77.03975 21 ft 3 kts 252°
2026-04-30 21:12 38.84983 -77.03955 22 ft 3 kts 190°
2026-04-30 21:13 38.84989 -77.03954 21 ft 0 kts 181°
2026-04-30 21:15 38.84984 -77.03954 22 ft 2 kts 181°
2026-04-30 21:15 38.84958 -77.03955 23 ft 6 kts 180°
2026-04-30 21:15 38.84911 -77.03952 21 ft 7 kts 176°
2026-04-30 21:15 38.84877 -77.03930 21 ft 5 kts 109°
2026-04-30 21:16 38.84878 -77.03874 21 ft 8 kts 87°
2026-04-30 21:16 38.84881 -77.03800 22 ft 8 kts 87°
2026-04-30 21:16 38.84884 -77.03730 24 ft 7 kts 88°
2026-04-30 21:16 38.84893 -77.03672 26 ft 7 kts 66°
2026-04-30 21:17 38.84914 -77.03613 27 ft 8 kts 65°
2026-04-30 21:17 38.84940 -77.03548 28 ft 9 kts 63°
2026-04-30 21:17 38.84969 -77.03468 27 ft 11 kts 73°
2026-04-30 21:17 38.84962 -77.03365 27 ft 13 kts 102°
2026-04-30 21:18 38.84962 -77.03255 28 ft 12 kts 54°
2026-04-30 21:18 38.85006 -77.03249 29 ft 6 kts 333°
2026-04-30 21:18 38.85043 -77.03285 30 ft 7 kts 322°
2026-04-30 21:18 38.85174 -77.03413 29 ft 58 kts 323°
2026-04-30 21:19 38.85700 -77.03928 30 ft 128 kts 322°
2026-04-30 21:19 38.86126 -77.04347 280 ft 137 kts 319°
2026-04-30 21:19 38.86211 -77.04428 371 ft 138 kts 319°
2026-04-30 21:19 38.87048 -77.05068 1136 ft 145 kts 332°
2026-04-30 21:20 38.87125 -77.05115 1199 ft 145 kts 331°
2026-04-30 21:20 38.87162 -77.05138 1237 ft 145 kts 331°
2026-04-30 21:22 38.88488 -77.06078 2280 ft 147 kts 329°
2026-04-30 21:23 38.89449 -77.06736 2649 ft 165 kts 329°
2026-04-30 21:23 38.90351 -77.07776 2955 ft 187 kts 303°
2026-04-30 21:23 38.91813 -77.11117 3470 ft 240 kts 315°
2026-04-30 21:24 38.93184 -77.12406 4158 ft 247 kts 327°
2026-04-30 21:24 38.94650 -77.13564 4977 ft 249 kts 327°
2026-04-30 21:24 38.96181 -77.14620 5786 ft 252 kts 337°
2026-04-30 21:24 38.97931 -77.15017 6511 ft 264 kts 360°
2026-04-30 21:25 39.01311 -77.12914 7933 ft 288 kts 37°
2026-04-30 21:25 39.02700 -77.11012 8608 ft 298 kts 53°
2026-04-30 21:25 39.03621 -77.08595 9297 ft 306 kts 72°
2026-04-30 21:26 39.03730 -77.03066 9991 ft 314 kts 96°
2026-04-30 21:26 39.03515 -77.00271 10021 ft 314 kts 96°
2026-04-30 21:27 39.02375 -76.94982 10025 ft 307 kts 131°
2026-04-30 21:27 39.00796 -76.93220 10025 ft 298 kts 157°
2026-04-30 21:27 38.98870 -76.92298 10026 ft 295 kts 168°
2026-04-30 21:28 38.94924 -76.90855 10027 ft 294 kts 169°
2026-04-30 21:28 38.92953 -76.90151 10027 ft 295 kts 169°
2026-04-30 21:28 38.88994 -76.88749 10027 ft 293 kts 169°
2026-04-30 21:29 38.87079 -76.88065 10025 ft 278 kts 169°
2026-04-30 21:29 38.81786 -76.86121 9839 ft 259 kts 169°
2026-04-30 21:30 38.78337 -76.84847 9127 ft 258 kts 169°
2026-04-30 21:31 38.73186 -76.82994 8129 ft 255 kts 169°
2026-04-30 21:31 38.69779 -76.81812 7342 ft 252 kts 169°
2026-04-30 21:32 38.66399 -76.80668 6398 ft 250 kts 169°
2026-04-30 21:32 38.64714 -76.80114 5919 ft 249 kts 169°
2026-04-30 21:32 38.63036 -76.79563 5451 ft 248 kts 169°
2026-04-30 21:32 38.61371 -76.79033 4982 ft 245 kts 174°
2026-04-30 21:33 38.59732 -76.79140 4519 ft 231 kts 206°
2026-04-30 21:33 38.57956 -76.82019 3564 ft 210 kts 264°
2026-04-30 21:33 38.57814 -76.83877 3040 ft 211 kts 269°
2026-04-30 21:34 38.57722 -76.85742 2580 ft 208 kts 269°
2026-04-30 21:34 38.57572 -76.89449 2503 ft 212 kts 269°
2026-04-30 21:34 38.57495 -76.91325 2504 ft 212 kts 269°
2026-04-30 21:35 38.57423 -76.93181 2504 ft 212 kts 269°
2026-04-30 21:35 38.57352 -76.95069 2504 ft 212 kts 269°
2026-04-30 21:35 38.57272 -76.96880 2525 ft 198 kts 269°
2026-04-30 21:35 38.57195 -76.98619 2508 ft 194 kts 269°
2026-04-30 21:36 38.57208 -77.00296 2499 ft 186 kts 285°
2026-04-30 21:36 38.57829 -77.01698 2508 ft 183 kts 308°
2026-04-30 21:37 38.61206 -77.02924 2519 ft 202 kts 25°
2026-04-30 21:37 38.62475 -77.02127 2514 ft 202 kts 14°
2026-04-30 21:37 38.63827 -77.01791 2518 ft 196 kts 358°
2026-04-30 21:37 38.65172 -77.01801 2510 ft 192 kts 353°
2026-04-30 21:38 38.66514 -77.01909 2511 ft 194 kts 351°
2026-04-30 21:38 38.67862 -77.02038 2485 ft 193 kts 351°
2026-04-30 21:38 38.69202 -77.02171 2484 ft 194 kts 351°
2026-04-30 21:38 38.70548 -77.02306 2484 ft 194 kts 350°
2026-04-30 21:39 38.71888 -77.02440 2362 ft 192 kts 352°
2026-04-30 21:39 38.73220 -77.02574 2165 ft 192 kts 350°
2026-04-30 21:39 38.74533 -77.02705 1928 ft 185 kts 352°
2026-04-30 21:39 38.75788 -77.02826 1690 ft 178 kts 351°
2026-04-30 21:40 38.77007 -77.02934 1441 ft 173 kts 352°
2026-04-30 21:40 38.78151 -77.03019 1273 ft 156 kts 352°
2026-04-30 21:40 38.79199 -77.03096 990 ft 146 kts 351°
2026-04-30 21:40 38.80175 -77.03213 798 ft 142 kts 347°
2026-04-30 21:41 38.81146 -77.03355 658 ft 140 kts 349°
2026-04-30 21:41 38.82121 -77.03392 482 ft 139 kts 350°
2026-04-30 21:41 38.83076 -77.03556 299 ft 139 kts 347°
2026-04-30 21:41 38.84030 -77.03658 98 ft 138 kts 348°
2026-04-30 21:42 38.84944 -77.03767 22 ft 109 kts 355°
2026-04-30 21:42 38.85404 -77.03808 24 ft 31 kts 357°
2026-04-30 21:42 38.85519 -77.03876 27 ft 14 kts 309°
2026-04-30 21:42 38.85557 -77.03933 27 ft 0 kts 310°